| time (UTC) | temp F | wind direction | speed MPH | gust MPH | rain 1hr in | rain 24hr in | rain mn in | humidity % | barometer mb |
| 20260831131547 | 62 | 188 | 1.0 | 5.0 | 0.00 | 0.00 | 0.00 | 90 | 964.5 |
| 20260831130050 | 62 | 248 | 1.0 | 3.0 | 0.00 | 0.00 | 0.00 | 91 | 964.4 |
| 20260831124544 | 61 | 232 | 0.0 | 4.0 | 0.00 | 0.00 | 0.00 | 91 | 964.2 |
| 20260831123042 | 60 | 245 | 0.0 | 2.0 | 0.00 | 0.00 | 0.00 | 90 | 964.3 |
| 20260831121539 | 60 | 246 | 0.0 | 1.0 | 0.00 | 0.00 | 0.00 | 90 | 964.5 |
| 20260831120037 | 60 | 246 | 0.0 | 0.0 | 0.00 | 0.00 | 0.00 | 90 | 964.5 |
| 20260831114535 | 59 | 246 | 0.0 | 0.0 | 0.00 | 0.00 | 0.00 | 90 | 964.3 |
| 20260831113031 | 59 | 246 | 0.0 | 1.0 | 0.00 | 0.00 | 0.00 | 90 | 964.3 |
| 20260831111540 | 59 | 246 | 0.0 | 2.0 | 0.00 | 0.00 | 0.00 | 90 | 964.3 |
| 20260831110030 | 59 | 246 | 0.0 | 1.0 | 0.00 | 0.00 | 0.00 | 90 | 964.0 |
| 20260831104530 | 59 | 245 | 0.0 | 1.0 | 0.00 | 0.00 | 0.00 | 90 | 963.9 |
| 20260831103027 | 59 | 245 | 0.0 | 3.0 | 0.00 | 0.00 | 0.00 | 90 | 963.7 |
| 20260831101526 | 59 | 245 | 1.0 | 3.0 | 0.00 | 0.00 | 0.00 | 90 | 963.8 |
| 20260831100025 | 58 | 284 | 0.0 | 2.0 | 0.00 | 0.00 | 0.00 | 90 | 963.8 |
| 20260831094526 | 58 | 286 | 0.0 | 1.0 | 0.00 | 0.00 | 0.00 | 90 | 963.7 |
| 20260831093027 | 58 | 286 | 0.0 | 1.0 | 0.00 | 0.00 | 0.00 | 90 | 963.7 |
| 20260831091522 | 58 | 286 | 0.0 | 2.0 | 0.00 | 0.00 | 0.00 | 90 | 964.0 |
| 20260831090020 | 59 | 273 | 0.0 | 1.0 | 0.00 | 0.00 | 0.00 | 90 | 963.9 |
| 20260831084532 | 60 | 273 | 0.0 | 1.0 | 0.00 | 0.00 | 0.00 | 90 | 963.7 |
| 20260831083017 | 60 | 273 | 1.0 | 2.0 | 0.00 | 0.00 | 0.00 | 90 | 963.8 |
| 20260831081523 | 60 | 273 | 0.0 | 0.0 | 0.00 | 0.00 | 0.00 | 90 | 963.6 |
| 20260831080016 | 60 | 273 | 0.0 | 0.0 | 0.00 | 0.00 | 0.00 | 90 | 963.6 |
| 20260831074531 | 60 | 273 | 0.0 | 0.0 | 0.00 | 0.00 | 0.00 | 90 | 963.7 |
| 20260831073038 | 60 | 273 | 1.0 | 2.0 | 0.00 | 0.00 | 0.00 | 90 | 963.6 |
| 20260831071513 | 60 | 273 | 0.0 | 0.0 | 0.00 | 0.00 | 0.00 | 90 | 963.6 |
| 20260831070016 | 60 | 273 | 0.0 | 0.0 | 0.00 | 0.00 | 0.00 | 89 | 963.8 |
| 20260831064526 | 60 | 273 | 0.0 | 0.0 | 0.00 | 0.00 | 0.00 | 89 | 963.7 |
| 20260831063016 | 60 | 273 | 0.0 | 0.0 | 0.00 | 0.00 | 0.00 | 89 | 963.8 |
| 20260831061508 | 61 | 273 | 0.0 | 0.0 | 0.00 | 0.00 | 0.00 | 89 | 963.9 |
| 20260831060007 | 61 | 273 | 0.0 | 0.0 | 0.00 | 0.00 | 0.00 | 89 | 964.2 |
| 20260831054505 | 61 | 273 | 0.0 | 0.0 | 0.00 | 0.00 | 0.00 | 89 | 964.3 |
| 20260831053015 | 61 | 273 | 0.0 | 0.0 | 0.00 | 0.00 | 0.00 | 89 | 964.3 |
| 20260831051506 | 61 | 273 | 0.0 | 0.0 | 0.00 | 0.00 | 0.00 | 89 | 964.2 |
| 20260831050009 | 61 | 273 | 0.0 | 0.0 | 0.00 | 0.00 | 0.00 | 88 | 964.2 |
| 20260831044502 | 62 | 273 | 0.0 | 2.0 | 0.00 | 0.00 | 0.00 | 88 | 964.3 |
| 20260831043103 | 62 | 273 | 0.0 | 1.0 | 0.00 | 0.00 | 0.00 | 88 | 964.2 |
| 20260831041607 | 62 | 273 | 0.0 | 2.0 | 0.00 | 0.00 | 0.00 | 87 | 964.3 |
| 20260831040056 | 62 | 273 | 0.0 | 0.0 | 0.00 | 0.00 | 0.00 | 87 | 964.1 |
| 20260831034554 | 63 | 273 | 0.0 | 0.0 | 0.00 | 0.00 | 0.00 | 87 | 964.2 |
| 20260831033054 | 63 | 273 | 0.0 | 0.0 | 0.00 | 0.00 | 0.00 | 87 | 964.3 |
| 20260831031555 | 63 | 273 | 0.0 | 0.0 | 0.00 | 0.00 | 0.00 | 87 | 964.2 |
| 20260831030058 | 63 | 273 | 0.0 | 0.0 | 0.00 | 0.00 | 0.00 | 87 | 964.4 |
| 20260831024555 | 63 | 273 | 0.0 | 0.0 | 0.00 | 0.00 | 0.00 | 87 | 964.3 |
| 20260831023052 | 63 | 273 | 0.0 | 2.0 | 0.00 | 0.00 | 0.00 | 87 | 964.5 |
| 20260831021552 | 63 | 273 | 0.0 | 2.0 | 0.00 | 0.00 | 0.00 | 87 | 964.3 |
| 20260831020052 | 63 | 273 | 0.0 | 2.0 | 0.00 | 0.00 | 0.00 | 87 | 964.4 |
| 20260831014552 | 63 | 273 | 1.0 | 2.0 | 0.00 | 0.00 | 0.00 | 86 | 964.2 |
| 20260831013050 | 63 | 273 | 0.0 | 3.0 | 0.00 | 0.00 | 0.00 | 86 | 964.1 |
| 20260831011550 | 63 | 273 | 0.0 | 3.0 | 0.00 | 0.00 | 0.00 | 86 | 964.3 |
| 20260831010049 | 64 | 267 | 1.0 | 4.0 | 0.00 | 0.00 | 0.00 | 85 | 964.1 |
| 20260831004548 | 64 | 269 | 1.0 | 4.0 | 0.00 | 0.00 | 0.00 | 85 | 963.9 |
| 20260831003047 | 64 | 279 | 0.0 | 3.0 | 0.00 | 0.00 | 0.00 | 84 | 963.6 |
| 20260831001546 | 64 | 279 | 0.0 | 3.0 | 0.00 | 0.00 | 0.00 | 84 | 963.4 |
| 20260831000056 | 65 | 266 | 3.0 | 8.0 | 0.00 | 0.00 | 0.00 | 84 | 963.2 |
| 20260830234549 | 65 | 282 | 2.0 | 8.0 | 0.00 | 0.00 | 0.00 | 83 | 963.1 |
| 20260830233056 | 65 | 268 | 2.0 | 9.0 | 0.00 | 0.00 | 0.00 | 83 | 963.2 |
| 20260830231545 | 65 | 272 | 2.0 | 10.0 | 0.00 | 0.00 | 0.00 | 83 | 963.0 |
| 20260830230044 | 66 | 271 | 3.0 | 7.0 | 0.00 | 0.00 | 0.00 | 82 | 963.1 |
| 20260830224545 | 66 | 279 | 2.0 | 7.0 | 0.00 | 0.00 | 0.00 | 82 | 963.2 |
| 20260830223043 | 66 | 263 | 3.0 | 6.0 | 0.00 | 0.00 | 0.00 | 82 | 963.1 |
| 20260830221548 | 66 | 269 | 3.0 | 6.0 | 0.00 | 0.00 | 0.00 | 82 | 962.9 |
| 20260830220057 | 66 | 284 | 0.0 | 4.0 | 0.00 | 0.00 | 0.00 | 81 | 963.0 |
| 20260830214542 | 67 | 261 | 2.0 | 7.0 | 0.00 | 0.00 | 0.00 | 81 | 963.0 |
| 20260830213044 | 67 | 260 | 4.0 | 7.0 | 0.00 | 0.00 | 0.00 | 81 | 963.0 |
| 20260830211547 | 67 | 261 | 3.0 | 7.0 | 0.00 | 0.00 | 0.00 | 81 | 963.2 |
| 20260830210042 | 67 | 272 | 4.0 | 8.0 | 0.00 | 0.00 | 0.00 | 80 | 963.1 |
| 20260830204553 | 67 | 273 | 2.0 | 6.0 | 0.00 | 0.00 | 0.00 | 80 | 963.0 |
| 20260830203039 | 67 | 265 | 1.0 | 2.0 | 0.00 | 0.00 | 0.00 | 80 | 963.1 |
| 20260830201546 | 67 | 263 | 1.0 | 5.0 | 0.00 | 0.00 | 0.00 | 79 | 963.2 |
| 20260830200043 | 67 | 284 | 1.0 | 6.0 | 0.00 | 0.00 | 0.00 | 79 | 963.1 |
| 20260830194540 | 68 | 301 | 3.0 | 8.0 | 0.00 | 0.00 | 0.00 | 78 | 963.0 |
| 20260830193035 | 69 | 287 | 4.0 | 12.0 | 0.00 | 0.00 | 0.00 | 77 | 963.2 |
| 20260830191612 | 70 | 5 | 4.0 | 9.0 | 0.00 | 0.00 | 0.00 | 75 | 963.0 |
| 20260830190045 | 71 | 267 | 3.0 | 8.0 | 0.00 | 0.00 | 0.00 | 76 | 963.1 |
| 20260830184537 | 72 | 273 | 2.0 | 4.0 | 0.00 | 0.00 | 0.00 | 76 | 963.0 |
| 20260830183033 | 73 | 279 | 1.0 | 4.0 | 0.00 | 0.00 | 0.00 | 75 | 963.0 |
| 20260830181532 | 73 | 257 | 2.0 | 5.0 | 0.00 | 0.00 | 0.00 | 74 | 963.0 |
| 20260830180036 | 73 | 248 | 4.0 | 7.0 | 0.00 | 0.00 | 0.00 | 72 | 963.1 |
| 20260830174532 | 74 | 284 | 2.0 | 8.0 | 0.00 | 0.00 | 0.00 | 72 | 963.3 |
| 20260830173027 | 74 | 219 | 3.0 | 6.0 | 0.00 | 0.00 | 0.00 | 71 | 963.3 |
| 20260830171525 | 74 | 248 | 4.0 | 9.0 | 0.00 | 0.00 | 0.00 | 73 | 963.5 |
| 20260830170024 | 73 | 256 | 3.0 | 7.0 | 0.00 | 0.00 | 0.00 | 73 | 963.6 |
| 20260830164521 | 73 | 248 | 4.0 | 10.0 | 0.00 | 0.00 | 0.00 | 74 | 963.6 |
| 20260830163034 | 73 | 208 | 6.0 | 11.0 | 0.00 | 0.00 | 0.00 | 75 | 963.6 |
| 20260830161515 | 72 | 259 | 4.0 | 7.0 | 0.00 | 0.00 | 0.00 | 77 | 963.8 |
| 20260830160025 | 71 | 253 | 4.0 | 7.0 | 0.00 | 0.00 | 0.00 | 79 | 964.0 |
| 20260830154510 | 70 | 251 | 4.0 | 7.0 | 0.00 | 0.00 | 0.00 | 78 | 964.1 |
| 20260830153006 | 69 | 262 | 5.0 | 10.0 | 0.00 | 0.00 | 0.00 | 79 | 964.3 |
| 20260830151502 | 67 | 250 | 4.0 | 9.0 | 0.00 | 0.00 | 0.00 | 79 | 964.1 |
| 20260830150106 | 67 | 206 | 6.0 | 9.0 | 0.00 | 0.00 | 0.00 | 79 | 964.1 |
| 20260830144608 | 67 | 242 | 3.0 | 8.0 | 0.00 | 0.00 | 0.00 | 79 | 964.4 |
| 20260830143058 | 67 | 202 | 3.0 | 11.0 | 0.00 | 0.00 | 0.00 | 79 | 964.2 |
| 20260830141557 | 66 | 182 | 3.0 | 10.0 | 0.00 | 0.00 | 0.00 | 80 | 963.7 |
| 20260830134551 | 63 | 207 | 3.0 | 5.0 | 0.00 | 0.00 | 0.00 | 82 | 964.3 |
| 20260830133059 | 63 | 198 | 3.0 | 6.0 | 0.00 | 0.00 | 0.00 | 82 | 964.3 |